Weather History for KBRL - August, 2014

Change the Weather History Date:

Tuesday, August 12, 2014

  Actual Average Record
Temperature  
Mean Temperature 68 °F 76 °F  
Max Temperature 77 °F 85 °F 104 °F (1918)
Min Temperature 59 °F 66 °F 47 °F (2004)
Degree Days  
Heating Degree Days 0 0  
Month to date heating degree days 0 0  
Since 1 June heating degree days 9 14  
Since 1 July heating degree days 7 1  
Cooling Degree Days 3 11  
Month to date cooling degree days 79 132  
Year to date cooling degree days 654 861  
Since 1 June cooling degree days 516 758  
Growing Degree Days 18 (Base 50)    
Moisture  
Dew Point 57 °F    
Average Humidity 72    
Maximum Humidity 97    
Minimum Humidity 46    
Precipitation  
Precipitation 0.00 in 0.13 in 0.89 in (1956)
Month to date precipitation 1.22 1.56  
Year to date precipitation 24.08 24.54  
Sea Level Pressure  
Sea Level Pressure 29.98 in    
Wind  
Wind Speed 10 mph (NW)    
Max Wind Speed 21 mph    
Max Gust Speed 28 mph    
Visibility 10 miles    
Events      
T = Trace of Precipitation, MM = Missing Value Source: NWS Daily Summary

Daily Weather History Graph

Daily Weather History Graph

Search for Another Location

Airport or City:

Trip Planner

Search our weather history database for the weather conditions in past years. The results will help you decide how hot, cold, wet, or windy it might be!

Date:

Astronomy

Aug. 12, 2014 Rise Set
Actual Time 6:11 AM CDT 8:06 PM CDT
Civil Twilight 5:42 AM CDT 8:36 PM CDT
Nautical Twilight 5:05 AM CDT 9:12 PM CDT
Astronomical Twilight 4:26 AM CDT 9:51 PM CDT
Moon 9:12 PM CDT (8/12) 8:30 AM CDT (8/12)
Length of Visible Light 14h 54m
Length of Day
13h 54m
Waning Gibbous, 94% of the Moon is Illuminated
Aug 12
Waning Gibbous
Aug 17
Last Quarter
Aug 25
New
Sep 2
First Quarter
Sep 8
Full

Hourly Weather History & Observations

Time (CDT) Temp. Dew Point Humidity Pressure Visibility Wind Dir Wind Speed Gust Speed Precip Events Conditions
12:53 AM 64.0 °F 62.1 °F 93% 29.94 in 10.0 mi WNW 6.9 mph - N/A   Clear
1:53 AM 62.1 °F 60.1 °F 93% 29.93 in 10.0 mi NW 6.9 mph - N/A   Clear
2:53 AM 62.1 °F 60.1 °F 93% 29.93 in 10.0 mi NW 5.8 mph - N/A   Clear
3:53 AM 62.6 °F 60.8 °F 94% 29.93 in 10.0 mi NW 10.4 mph - N/A   Clear
4:53 AM 61.0 °F 59.0 °F 93% 29.93 in 10.0 mi NW 10.4 mph - N/A   Clear
5:53 AM 60.1 °F 59.0 °F 96% 29.95 in 10.0 mi NW 8.1 mph - N/A   Clear
6:53 AM 60.1 °F 57.9 °F 93% 29.97 in 10.0 mi NW 8.1 mph - N/A   Clear
7:53 AM 62.1 °F 57.9 °F 86% 29.99 in 10.0 mi NNW 10.4 mph 18.4 mph N/A   Clear
8:53 AM 64.9 °F 57.9 °F 78% 29.99 in 10.0 mi North 15.0 mph 20.7 mph N/A   Clear
9:53 AM 68.0 °F 55.9 °F 65% 30.00 in 10.0 mi NNW 15.0 mph 21.9 mph N/A   Clear
10:53 AM 71.1 °F 57.9 °F 63% 30.01 in 10.0 mi North 10.4 mph 18.4 mph N/A   Clear
12:53 PM 73.0 °F 55.9 °F 55% 29.99 in 10.0 mi NNW 12.7 mph 23.0 mph N/A   Partly Cloudy
1:53 PM 75.0 °F 55.0 °F 50% 30.00 in 10.0 mi NNW 13.8 mph 28.8 mph N/A   Scattered Clouds
2:53 PM 75.0 °F 55.0 °F 50% 29.99 in 10.0 mi NNW 19.6 mph 25.3 mph N/A   Partly Cloudy
3:53 PM 75.0 °F 54.0 °F 48% 29.99 in 10.0 mi NNW 11.5 mph 20.7 mph N/A   Scattered Clouds
4:53 PM 75.0 °F 53.1 °F 46% 29.99 in 10.0 mi North 10.4 mph - N/A   Partly Cloudy
5:53 PM 75.9 °F 54.0 °F 46% 29.99 in 10.0 mi NW 16.1 mph 20.7 mph N/A   Scattered Clouds
6:53 PM 73.9 °F 55.0 °F 52% 29.98 in 10.0 mi NW 8.1 mph - N/A   Clear
7:53 PM 69.1 °F 57.0 °F 65% 29.99 in 10.0 mi NW 4.6 mph - N/A   Clear
8:53 PM 66.9 °F 55.9 °F 68% 30.01 in 10.0 mi NW 4.6 mph - N/A   Mostly Cloudy
9:53 PM 62.1 °F 57.0 °F 84% 30.02 in 10.0 mi NW 3.5 mph - N/A   Clear
10:53 PM 63.0 °F 55.9 °F 78% 30.03 in 10.0 mi NNW 4.6 mph - N/A   Clear
11:53 PM 60.1 °F 55.0 °F 83% 30.03 in 10.0 mi NW 5.8 mph - N/A   Clear